CZ-4C DEB

Satellite information

Favourite Embed

Satellite Type and Status

DEBRISIN ORBIT

Key statistics

Satellite CZ-4C DEB at a glance.

Uptime

4487

Days in orbit

Revolutions

≈ 13.5

Per day

Orbit

LEO

Low Earth Orbit

Inclination

63.4

Latest

Satellite identification and parameters

Extended collection of information and parameters for CZ-4C DEB.

Object identification

Identified? True

Debris? True

Object name: CZ-4C DEB

International designator: 2013-046E

Object number (NORAD): 39243

Object ID (CCSDS): 39243

Country: PEOPLES REPUBLIC OF CHINA (PRC)

Current information (Y/N): Y

RCS size: LARGE

Orbital parameters

Period: 107.06 minutes

Inclination: 63.3873 deg

SMA: 7468.718 km

Apoapsis: 1402.358 km

Periapsis: 778.809 km

RAAN: 224.9455 deg

Eccentricy: 0.04174404

Argument of periapsis: 12.0311 deg

Mean anomaly: 349.0321 deg

Mean motion: 13.45035151 rev/day

Mean motion (dot): 0.00000216 rev/day2

B* drag term: 0.00030769456 1/REarth

Two-line elements (TLE)

Creation date: Dec. 14, 2025, 3:07 a.m.

Reference frame: TEME

Reference center: EARTH

Epoch: Dec. 13, 2025, 9:43 a.m. UTC

TLE line 0: 0 CZ-4C DEB

TLE line 1: 1 39243U 13046E 25347.40499428 .00000216 00000-0 30769-3 0 9993

TLE line 2: 2 39243 63.3873 224.9455 0417440 12.0311 349.0321 13.45035151603012

Live tracking on map

Real-time ground track for satellite CZ-4C DEB.

In-orbit conjunctions

A list of the most updated potential collisions computed for object CZ-4C DEB.

Target Orbit TCA Probability of collision Miss distance Type
FENGYUN 1C DEB SSO 2024-11-14 05:57:39 0.0006771339 69.0 (m) DEBRIS
COSMOS 1275 DEB LEO 2024-11-09 21:29:38 0.0002430167 260.0 (m) DEBRIS

Associated space launch

CZ-4C DEB was lifted into orbit during the mission ‘Long March 4C | Yaogan 17A, B & C’, on board a Long March 4C space rocket.

The launch took place on Sept. 1, 2013, 7:16 p.m. from Launch Area 94 (SLS-2 / 603).

For more information about the launch, click the button.

Launch to space Long March 4C | Yaogan 17A, B & C
Long March 4C | Yaogan 17A, B & C

Agency: N/A

Status: Launch Successful

Launch date: Sept. 1, 2013, 7:16 p.m. UTC

Rocket: Long March 4C

Launch pad: Launch Area 94 (SLS-2 / 603)

Location: Jiuquan Satellite Launch Center, People's Republic of China

...

Latest news about this satellite

There are no fresh news available about this satellite. Check back as we update our databases every day.


Newsletter sign-up

Weekly statistics, charts and insights to help you stay on top of the space industry.